Home > Weather > Darlington > Past weeks

Flag for United Kingdom Past Weather in Darlington, England, United Kingdom — Yesterday and Last 2 Weeks

Now
57 °F

Sprinkles. Passing clouds.


Feels Like: 54 °F
Forecast: 47 / 60 °F
Wind: 15 mph from Southwest

Location: Tees-Side

Current Time: Jul 1, 2016 at 7:58:21 PM

Latest Report: Jul 1, 2016 at 6:20 PM


Visibility: N/A

Pressure: 29.59 "Hg

Humidity: 72%

Dew Point: 48 °F

Location of DarlingtonLocation

Past Weather in Darlington — Graph

°F

Darlington Temperature Yesterday

Maximum temperature yesterday: 64 °F (at 12:20 PM)
Minimum temperature yesterday: 48 °F (at 5:50 AM)
Average temperature yesterday: 59 °F

High & Low Weather Summary for the Past Weeks

 TemperatureHumidityPressure
High73 °F (Jun 23, 2:50 PM)94% (Jun 16, 8:50 PM)30.18 "Hg (Jun 16, 8:50 PM)
Low48 °F (Jun 25, 5:50 AM)46% (Jun 20, 6:50 PM)29.42 "Hg (Jun 29, 4:20 PM)
Average60 °F72%29.89 "Hg
* Reported Jun 16 6:20 PM — Jul 1 6:20 PM, Darlington, Weather by CustomWeather, © 2016

Note: Actual official high and low records may vary slightly from our data, if they occured in-between our weather recording intervals... More about our weather records

Advertising

Darlington Weather History for the Previous 24 Hours

Scroll right to see more
 ConditionsComfort  
Time TempWeatherWind HumidityBarometerVisibility
6:20 PM
Fri, Jul 1
57 °FSprinkles. Passing clouds.15 mph72%29.59 "HgN/A
5:50 PM57 °FScattered showers. Passing clouds.13 mph72%29.59 "HgN/A
5:20 PM55 °FSprinkles. Passing clouds.14 mph77%29.59 "HgN/A
4:50 PM61 °FRain. Passing clouds.18 mph55%29.59 "HgN/A
4:20 PM64 °FPassing clouds.17 mph52%29.59 "HgN/A
3:50 PM64 °FPassing clouds.18 mph56%29.59 "HgN/A
3:20 PM63 °FPassing clouds.16 mph59%29.59 "HgN/A
2:50 PM61 °FPassing clouds.17 mph59%29.59 "HgN/A
2:20 PM64 °FPassing clouds.17 mph56%29.59 "HgN/A
1:50 PM64 °FPassing clouds.16 mph60%29.62 "HgN/A
1:20 PM64 °FPassing clouds.20 mph56%29.62 "HgN/A
12:50 PM61 °FPassing clouds.12 mph68%29.62 "HgN/A
12:20 PM57 °FPassing clouds.15 mph77%29.62 "HgN/A
11:50 AM57 °FLight rain. Passing clouds.18 mph72%29.62 "HgN/A
11:20 AM63 °FScattered showers. Passing clouds.15 mph64%29.62 "HgN/A
10:50 AM59 °FPassing clouds.15 mph72%29.62 "HgN/A
10:20 AM57 °FScattered clouds.14 mph72%29.62 "HgN/A
9:50 AM59 °FScattered clouds.13 mph72%29.62 "HgN/A
9:20 AM57 °FScattered clouds.12 mph77%29.62 "HgN/A
8:50 AM57 °FScattered clouds.8 mph77%29.62 "HgN/A
8:20 AM55 °FPassing clouds.8 mph82%29.62 "HgN/A
7:50 AM55 °FPassing clouds.10 mph82%29.62 "HgN/A
7:20 AM55 °FScattered clouds.9 mph82%29.62 "HgN/A
6:50 AM54 °FScattered clouds.10 mph82%29.62 "HgN/A
6:20 AM55 °FPassing clouds.7 mph82%29.59 "HgN/A
5:50 AM54 °FPassing clouds.9 mph82%29.59 "HgN/A
9:50 PM
Thu, Jun 30
54 °FLight rain. More clouds than sun.5 mph94%29.62 "Hg4 mi
9:20 PM54 °FLight rain. Overcast.6 mph94%29.62 "Hg4 mi
8:50 PM54 °FScattered clouds.3 mph94%29.65 "Hg6 mi
8:20 PM54 °FLight rain. Partly sunny.3 mph94%29.65 "Hg6 mi
7:50 PM55 °FLight rain. Broken clouds.7 mph88%29.68 "Hg4 mi
7:20 PM55 °FLight rain. Broken clouds.12 mph82%29.68 "Hg4 mi
Weather by CustomWeather, © 2016

See weather overviewHow to use our weather pages